Starlink 35434

operational
NORAD ID: 66247 Int'l Des: 2025-245 Owner: SPXS Country: US Constellation: starlink
LEOCIRCULAR

About Starlink 35434

Description loading...

Live Position

Loading 3D Globe...

Upcoming Passes

Altitude History

Altitude vs Time

uPlot chart will show altitude changes over time

Two-Line Element Set

1 66247C 25245N 25303.07618056 .00463690 00000+0 73060-3 0 3034
2 66247 53.1599 182.3372 0004934 304.2142 136.2414 16.02674958 11
Epoch: Oct 30, 2025 • Age: 19 hours

Current Status

Altitude 264.6 km
Velocity 7.75 km/s
Sub-Earth Point -4.41°S, 155.52°W
Launch Date Oct 29, 2025
Age 1 days
Type internet

Technical Details

Classification Payload
Mass 575.00 kg
Dry Mass 530.00 kg
Total Mass 575.00 kg
Length 0.30 m
Diameter 4.10 m
Span 29.00 m
Shape Box + pan
Manufacturer SPXS
Bus Type Starlink V2MO
Phase Status In Orbit
Owner/State SPXS/US

Large Constellations

Loading constellations...